Weather History for Alexandria Esle, LA

Change the Weather History Date:

Wednesday, October 9, 2013

  Actual Average Record
Temperature  
Mean Temperature 65 °F -  
Max Temperature 82 °F 78 °F 93 °F (2010)
Min Temperature 48 °F 53 °F 41 °F (1967)
Growing Degree Days 15 (Base 50)    
Moisture  
Dew Point 51 °F    
Average Humidity 81    
Maximum Humidity 94    
Minimum Humidity 34    
Precipitation  
Precipitation 0.00 in - - ()
Sea Level Pressure  
Sea Level Pressure 30.05 in    
Wind  
Wind Speed 0 mph (ENE)    
Max Wind Speed 6 mph    
Max Gust Speed -    
Visibility 5 miles    
Events      
Averages and records for this station are not official NWS values.
T = Trace of Precipitation, MM = Missing Value Source: NWS Daily Summary

Daily Weather History Graph

Daily Weather History Graph

Search for Another Location

Airport:

Trip Planner

Search our weather history database for the weather conditions in past years. The results will help you decide how hot, cold, wet, or windy it might be!

Date:

Astronomy

Oct. 09, 2013 Rise Set
Actual Time 7:08 AM CDT 6:43 PM CDT
Civil Twilight 6:43 AM CDT 7:08 PM CDT
Nautical Twilight 6:15 AM CDT 7:36 PM CDT
Astronomical Twilight 5:47 AM CDT 8:04 PM CDT
Moon 11:49 AM CDT (10/9) 10:33 PM CDT (10/9)
Length of Visible Light 12h 24m
Length of Day
11h 35m
Waxing Crescent, 25% of the Moon is Illuminated
Oct 9
Waxing Crescent
Oct 11
First Quarter
Oct 18
Full
Oct 26
Last Quarter
Nov 3
New

Hourly Weather History & Observations

Time (CDT) Temp. Heat Index Dew Point Humidity Pressure Visibility Wind Dir Wind Speed Gust Speed Precip Events Conditions
12:49 AM 53.6 °F - 51.8 °F 94% 30.05 in 1.8 mi Calm Calm - N/A   Clear
12:53 AM 54.0 °F - 51.1 °F 90% 30.05 in 1.2 mi Calm Calm - N/A   Clear
1:00 AM 53.6 °F - 51.8 °F 94% 30.05 in 3.0 mi Calm Calm - N/A   Clear
1:14 AM 53.6 °F - 50.0 °F 88% 30.05 in 2.0 mi Calm Calm - N/A   Clear
1:23 AM 53.6 °F - 50.0 °F 88% 30.05 in 5.0 mi Calm Calm - N/A   Clear
1:53 AM 53.1 °F - 50.0 °F 89% 30.04 in 8.0 mi Calm Calm - N/A   Clear
2:08 AM 51.8 °F - 48.2 °F 88% 30.04 in 5.0 mi Calm Calm - N/A   Partly Cloudy
2:27 AM 51.8 °F - 48.2 °F 88% 30.04 in 2.0 mi Calm Calm - N/A   Partly Cloudy
2:53 AM 53.1 °F - 48.9 °F 86% 30.04 in 2.5 mi Calm Calm - N/A   Clear
3:00 AM 51.8 °F - 48.2 °F 88% 30.04 in 0.8 mi Calm Calm - N/A   Clear
3:11 AM 51.8 °F - 48.2 °F 88% 30.03 in 1.2 mi Calm Calm - N/A   Clear
3:30 AM 51.8 °F - 48.2 °F 88% 30.03 in 1.2 mi Calm Calm - N/A   Partly Cloudy
3:53 AM 51.1 °F - 48.0 °F 89% 30.04 in 1.5 mi Calm Calm - N/A   Clear
4:04 AM 51.8 °F - 48.2 °F 88% 30.04 in 1.2 mi Calm Calm - N/A   Partly Cloudy
4:29 AM 50.0 °F - 48.2 °F 94% 30.04 in 3.0 mi Calm Calm - N/A   Clear
4:53 AM 50.0 °F - 46.9 °F 89% 30.04 in 2.5 mi Calm Calm - N/A   Clear
5:10 AM 50.0 °F - 46.4 °F 87% 30.04 in 8.0 mi Calm Calm - N/A   Clear
5:36 AM 50.0 °F - 46.4 °F 87% 30.05 in 2.0 mi Calm Calm - N/A   Clear
5:43 AM 50.0 °F - 46.4 °F 87% 30.05 in 2.5 mi Calm Calm - N/A   Partly Cloudy
5:53 AM 48.9 °F - 46.9 °F 93% 30.04 in 2.0 mi Calm Calm - N/A   Scattered Clouds
6:01 AM 48.2 °F - 46.4 °F 93% 30.05 in 5.0 mi Calm Calm - N/A   Partly Cloudy
6:10 AM 48.2 °F - 46.4 °F 93% 30.05 in 2.0 mi Calm Calm - N/A   Partly Cloudy
6:20 AM 48.2 °F - 46.4 °F 93% 30.05 in 5.0 mi Calm Calm - N/A   Clear
6:41 AM 48.2 °F - 46.4 °F 93% 30.06 in 1.8 mi Calm Calm - N/A   Clear
6:51 AM 48.2 °F - 46.4 °F 93% 30.06 in 3.0 mi Calm Calm - N/A   Clear
6:52 AM 48.9 °F - 46.0 °F 90% 30.06 in 4.0 mi Calm Calm - N/A   Clear
7:08 AM 48.2 °F - 46.4 °F 93% 30.06 in 2.5 mi Calm Calm - N/A   Clear
7:16 AM 48.2 °F - 46.4 °F 93% 30.07 in 8.0 mi Calm Calm - N/A   Clear
7:53 AM 51.1 °F - 48.0 °F 89% 30.07 in 10.0 mi Calm Calm - N/A   Clear
8:53 AM 60.1 °F - 54.0 °F 80% 30.10 in 10.0 mi Calm Calm - N/A   Clear
9:53 AM 68.0 °F - 55.9 °F 65% 30.11 in 10.0 mi East 3.5 mph - N/A   Clear
10:53 AM 73.9 °F - 55.9 °F 53% 30.11 in 10.0 mi Calm Calm - N/A   Clear
11:53 AM 78.1 °F - 53.1 °F 42% 30.12 in 10.0 mi Calm Calm - N/A   Clear
12:53 PM 79.0 °F - 54.0 °F 42% 30.09 in 10.0 mi Variable 3.5 mph - N/A   Clear
1:53 PM 80.1 °F 79.9 °F 53.1 °F 39% 30.06 in 10.0 mi WSW 3.5 mph - N/A   Clear
2:53 PM 82.9 °F - 52.0 °F 34% 30.05 in 10.0 mi NE 5.8 mph - N/A   Clear
3:53 PM 82.0 °F - 51.1 °F 34% 30.04 in 10.0 mi Calm Calm - N/A   Clear
4:53 PM 82.9 °F - 52.0 °F 34% 30.04 in 10.0 mi Calm Calm - N/A   Clear
5:53 PM 77.0 °F - 59.0 °F 54% 30.03 in 10.0 mi Calm Calm - N/A   Clear
6:53 PM 66.9 °F - 59.0 °F 76% 30.03 in 10.0 mi Calm Calm - N/A   Clear
7:53 PM 62.1 °F - 57.9 °F 86% 30.04 in 10.0 mi Calm Calm - N/A   Clear
8:53 PM 61.0 °F - 57.0 °F 87% 30.05 in 10.0 mi Calm Calm - N/A   Clear
9:53 PM 59.0 °F - 55.9 °F 90% 30.06 in 3.0 mi Calm Calm - N/A   Clear
10:27 PM 57.2 °F - 55.4 °F 94% 30.06 in 1.8 mi Calm Calm - N/A   Clear
10:36 PM 59.0 °F - 55.4 °F 88% 30.07 in 4.0 mi Calm Calm - N/A   Clear
10:53 PM 57.0 °F - 54.0 °F 89% 30.06 in 4.0 mi Calm Calm - N/A   Clear
11:20 PM 57.2 °F - 55.4 °F 94% 30.07 in 1.8 mi Calm Calm - N/A   Clear
11:42 PM 57.2 °F - 53.6 °F 88% 30.06 in 4.0 mi Calm Calm - N/A   Clear
11:53 PM 57.0 °F - 54.0 °F 89% 30.06 in 10.0 mi Calm Calm - N/A   Clear